Time,TemperatureF,DewpointF,PressureIn,WindDirection,WindDirectionDegrees,WindSpeedMPH,WindSpeedGustMPH,Humidity,HourlyPrecipIn,Conditions,Clouds,dailyrainin,SoftwareType,DateUTC
2013-05-24 00:01:00,49.0,48.0,30.07,West,277,4.0,8.0,95,0.00,,,0.00,,2013-05-24 07:01:00,
2013-05-24 00:11:00,49.0,48.0,30.07,West,277,4.0,8.0,95,0.00,,,0.00,,2013-05-24 07:11:00,
2013-05-24 00:22:00,49.0,48.0,30.07,West,265,6.0,8.0,95,0.00,,,0.00,,2013-05-24 07:22:00,
2013-05-24 00:31:00,49.0,48.0,30.07,West,272,6.0,12.0,95,0.00,,,0.00,,2013-05-24 07:31:00,
2013-05-24 00:41:00,49.0,48.0,30.07,West,272,6.0,12.0,95,0.00,,,0.00,,2013-05-24 07:41:00,
2013-05-24 00:52:00,49.0,48.0,30.07,West,267,3.0,8.0,95,0.00,,,0.00,,2013-05-24 07:52:00,
2013-05-24 01:02:00,49.0,48.0,30.06,West,272,2.0,5.0,95,0.00,,,0.00,,2013-05-24 08:02:00,
2013-05-24 01:11:00,49.0,48.0,30.06,West,272,2.0,5.0,95,0.00,,,0.00,,2013-05-24 08:11:00,
2013-05-24 01:22:00,49.0,48.0,30.06,SSW,202,0.0,2.0,95,0.00,,,0.00,,2013-05-24 08:22:00,
2013-05-24 01:32:00,49.0,48.0,30.06,SSW,202,0.0,0.0,95,0.00,,,0.00,,2013-05-24 08:32:00,
2013-05-24 01:41:00,49.0,48.0,30.06,SSW,202,0.0,0.0,95,0.00,,,0.00,,2013-05-24 08:41:00,
2013-05-24 01:52:00,49.0,48.0,30.06,West,268,5.0,8.0,96,0.00,,,0.00,,2013-05-24 08:52:00,
2013-05-24 02:01:00,49.0,48.0,30.06,West,276,6.0,10.0,95,0.00,,,0.00,,2013-05-24 09:01:00,
2013-05-24 02:11:00,49.0,48.0,30.06,West,276,6.0,10.0,95,0.00,,,0.00,,2013-05-24 09:11:00,
2013-05-24 02:21:00,50.0,49.0,30.06,WNW,293,6.0,9.0,95,0.00,,,0.00,,2013-05-24 09:21:00,
2013-05-24 02:32:00,50.0,49.0,30.06,WNW,294,5.0,10.0,95,0.00,,,0.00,,2013-05-24 09:32:00,
2013-05-24 02:42:00,50.0,49.0,30.06,WNW,294,5.0,10.0,95,0.00,,,0.00,,2013-05-24 09:42:00,
2013-05-24 02:52:00,49.0,47.0,30.06,West,281,6.0,9.0,94,0.00,,,0.00,,2013-05-24 09:52:00,
2013-05-24 03:02:00,50.0,48.0,30.07,WNW,287,6.0,10.0,94,0.00,,,0.00,,2013-05-24 10:02:00,
2013-05-24 03:12:00,50.0,48.0,30.07,WNW,287,6.0,10.0,94,0.00,,,0.00,,2013-05-24 10:12:00,
2013-05-24 03:22:00,50.0,48.0,30.07,West,275,5.0,9.0,93,0.00,,,0.00,,2013-05-24 10:22:00,
2013-05-24 03:32:00,50.0,48.0,30.07,West,279,5.0,10.0,92,0.00,,,0.00,,2013-05-24 10:32:00,
2013-05-24 03:42:00,50.0,48.0,30.07,West,279,5.0,10.0,92,0.00,,,0.00,,2013-05-24 10:42:00,
2013-05-24 03:52:00,50.0,48.0,30.07,West,271,6.0,9.0,92,0.00,,,0.00,,2013-05-24 10:52:00,
2013-05-24 04:02:00,50.0,47.0,30.07,West,272,6.0,10.0,91,0.00,,,0.00,,2013-05-24 11:02:00,
2013-05-24 04:11:00,50.0,47.0,30.07,West,272,6.0,10.0,91,0.00,,,0.00,,2013-05-24 11:11:00,
2013-05-24 04:22:00,50.0,47.0,30.07,WSW,253,7.0,12.0,90,0.00,,,0.00,,2013-05-24 11:22:00,
2013-05-24 04:32:00,51.0,48.0,30.07,West,275,6.0,11.0,90,0.00,,,0.00,,2013-05-24 11:32:00,
2013-05-24 04:41:00,51.0,48.0,30.07,West,275,6.0,11.0,90,0.00,,,0.00,,2013-05-24 11:41:00,
2013-05-24 04:52:00,51.0,48.0,30.07,West,278,7.0,11.0,89,0.00,,,0.00,,2013-05-24 11:52:00,
2013-05-24 05:01:00,51.0,48.0,30.07,West,269,7.0,11.0,89,0.00,,,0.00,,2013-05-24 12:01:00,
2013-05-24 05:11:00,51.0,48.0,30.07,West,269,7.0,11.0,89,0.00,,,0.00,,2013-05-24 12:11:00,
2013-05-24 05:21:00,51.0,48.0,30.07,West,269,5.0,10.0,89,0.00,,,0.00,,2013-05-24 12:21:00,
2013-05-24 05:32:00,51.0,47.0,30.07,WNW,283,5.0,11.0,87,0.00,,,0.00,,2013-05-24 12:32:00,
2013-05-24 05:42:00,51.0,47.0,30.07,WNW,283,5.0,11.0,87,0.00,,,0.00,,2013-05-24 12:42:00,
2013-05-24 05:52:00,50.0,46.0,30.07,NNW,346,0.0,3.0,87,0.00,,,0.00,,2013-05-24 12:52:00,
2013-05-24 06:01:00,50.0,46.0,30.07,WSW,245,0.0,6.0,87,0.00,,,0.00,,2013-05-24 13:01:00,
2013-05-24 06:11:00,50.0,46.0,30.07,WSW,245,0.0,6.0,87,0.00,,,0.00,,2013-05-24 13:11:00,
2013-05-24 06:21:00,50.0,47.0,30.08,SW,232,5.0,9.0,88,0.00,,,0.00,,2013-05-24 13:21:00,
2013-05-24 06:31:00,50.0,47.0,30.08,ESE,116,1.0,7.0,88,0.00,,,0.00,,2013-05-24 13:31:00,
2013-05-24 06:41:00,50.0,47.0,30.08,ESE,116,1.0,7.0,88,0.00,,,0.00,,2013-05-24 13:41:00,
2013-05-24 06:52:00,50.0,47.0,30.08,West,277,4.0,8.0,88,0.00,,,0.00,,2013-05-24 13:52:00,
2013-05-24 07:01:00,51.0,48.0,30.08,West,267,7.0,12.0,89,0.00,,,0.00,,2013-05-24 14:01:00,
2013-05-24 07:11:00,51.0,48.0,30.08,West,267,7.0,12.0,89,0.00,,,0.00,,2013-05-24 14:11:00,
2013-05-24 07:21:00,50.0,47.0,30.09,West,262,5.0,13.0,88,0.00,,,0.00,,2013-05-24 14:21:00,
2013-05-24 07:31:00,51.0,48.0,30.09,WNW,286,6.0,13.0,88,0.00,,,0.00,,2013-05-24 14:31:00,
2013-05-24 07:42:00,51.0,48.0,30.09,WNW,286,6.0,13.0,88,0.00,,,0.00,,2013-05-24 14:42:00,
2013-05-24 07:52:00,51.0,48.0,30.10,West,281,5.0,9.0,88,0.00,,,0.00,,2013-05-24 14:52:00,
2013-05-24 08:01:00,51.0,48.0,30.10,West,274,5.0,9.0,88,0.00,,,0.00,,2013-05-24 15:01:00,
2013-05-24 08:11:00,51.0,48.0,30.10,West,274,5.0,9.0,88,0.00,,,0.00,,2013-05-24 15:11:00,
2013-05-24 08:21:00,51.0,48.0,30.10,West,265,7.0,11.0,88,0.00,,,0.00,,2013-05-24 15:21:00,
2013-05-24 08:32:00,50.0,47.0,30.11,West,259,5.0,11.0,89,0.00,,,0.00,,2013-05-24 15:32:00,
2013-05-24 08:43:00,50.0,47.0,30.11,West,259,5.0,11.0,89,0.00,,,0.00,,2013-05-24 15:43:00,
2013-05-24 08:52:00,50.0,47.0,30.11,West,259,5.0,11.0,89,0.00,,,0.00,,2013-05-24 15:52:00,
2013-05-24 09:03:00,50.0,47.0,30.11,SW,220,3.0,9.0,91,0.00,,,0.00,,2013-05-24 16:03:00,
2013-05-24 09:12:00,50.0,47.0,30.11,SW,220,3.0,9.0,91,0.00,,,0.00,,2013-05-24 16:12:00,
2013-05-24 09:22:00,50.0,48.0,30.11,WSW,254,2.0,5.0,92,0.00,,,0.00,,2013-05-24 16:22:00,
2013-05-24 09:32:00,50.0,48.0,30.11,West,269,3.0,9.0,93,0.00,,,0.00,,2013-05-24 16:32:00,
2013-05-24 09:42:00,50.0,48.0,30.11,West,269,3.0,9.0,93,0.00,,,0.00,,2013-05-24 16:42:00,
2013-05-24 09:52:00,50.0,48.0,30.12,WSW,252,4.0,9.0,94,0.00,,,0.00,,2013-05-24 16:52:00,
2013-05-24 10:01:00,50.0,48.0,30.12,SSW,212,3.0,8.0,94,0.00,,,0.00,,2013-05-24 17:01:00,
2013-05-24 10:11:00,50.0,48.0,30.12,SSW,212,3.0,8.0,94,0.00,,,0.00,,2013-05-24 17:11:00,
2013-05-24 10:22:00,51.0,49.0,30.12,SE,138,3.0,7.0,94,0.00,,,0.00,,2013-05-24 17:22:00,
2013-05-24 10:32:00,50.0,48.0,30.12,South,177,5.0,9.0,94,0.00,,,0.00,,2013-05-24 17:32:00,
2013-05-24 10:41:00,50.0,48.0,30.12,South,177,5.0,9.0,94,0.00,,,0.00,,2013-05-24 17:41:00,
2013-05-24 10:52:00,51.0,49.0,30.12,WSW,248,4.0,8.0,94,0.00,,,0.00,,2013-05-24 17:52:00,
2013-05-24 11:01:00,51.0,49.0,30.13,WSW,247,4.0,10.0,94,0.00,,,0.00,,2013-05-24 18:01:00,
2013-05-24 11:11:00,51.0,49.0,30.13,WSW,247,4.0,10.0,94,0.00,,,0.00,,2013-05-24 18:11:00,
2013-05-24 11:21:00,51.0,49.0,30.13,South,181,3.0,12.0,94,0.00,,,0.00,,2013-05-24 18:21:00,
2013-05-24 11:31:00,51.0,49.0,30.14,South,173,5.0,12.0,92,0.00,,,0.00,,2013-05-24 18:31:00,
2013-05-24 11:41:00,51.0,49.0,30.14,South,173,5.0,12.0,92,0.00,,,0.00,,2013-05-24 18:41:00,
2013-05-24 11:52:00,51.0,48.0,30.14,South,180,6.0,15.0,91,0.00,,,0.00,,2013-05-24 18:52:00,
2013-05-24 12:01:00,52.0,49.0,30.14,SE,138,3.0,8.0,90,0.00,,,0.00,,2013-05-24 19:01:00,
2013-05-24 12:11:00,52.0,49.0,30.14,SE,138,3.0,8.0,90,0.00,,,0.00,,2013-05-24 19:11:00,
2013-05-24 12:21:00,51.0,48.0,30.14,SW,218,5.0,14.0,88,0.00,,,0.00,,2013-05-24 19:21:00,
2013-05-24 12:31:00,51.0,48.0,30.14,SW,228,4.0,12.0,88,0.00,,,0.00,,2013-05-24 19:31:00,
2013-05-24 12:41:00,51.0,48.0,30.14,SW,228,4.0,12.0,88,0.00,,,0.00,,2013-05-24 19:41:00,
2013-05-24 12:52:00,51.0,48.0,30.14,SW,234,2.0,8.0,91,0.00,,,0.00,,2013-05-24 19:52:00,
2013-05-24 13:01:00,52.0,50.0,30.14,South,188,1.0,10.0,92,0.00,,,0.00,,2013-05-24 20:01:00,
2013-05-24 13:11:00,52.0,50.0,30.14,South,188,1.0,10.0,92,0.00,,,0.00,,2013-05-24 20:11:00,
2013-05-24 13:21:00,51.0,48.0,30.14,South,185,4.0,14.0,91,0.00,,,0.00,,2013-05-24 20:21:00,
2013-05-24 13:31:00,51.0,49.0,30.15,SSE,159,4.0,16.0,92,0.00,,,0.00,,2013-05-24 20:31:00,
2013-05-24 13:41:00,51.0,49.0,30.15,SSE,159,4.0,16.0,92,0.00,,,0.00,,2013-05-24 20:41:00,
2013-05-24 13:52:00,51.0,49.0,30.15,South,190,6.0,12.0,92,0.00,,,0.00,,2013-05-24 20:52:00,
2013-05-24 14:01:00,51.0,49.0,30.15,WSW,242,2.0,7.0,93,0.00,,,0.00,,2013-05-24 21:01:00,
2013-05-24 14:11:00,51.0,49.0,30.15,WSW,242,2.0,7.0,93,0.00,,,0.00,,2013-05-24 21:11:00,
2013-05-24 14:21:00,50.0,48.0,30.15,SSW,209,6.0,13.0,92,0.00,,,0.00,,2013-05-24 21:21:00,
2013-05-24 14:32:00,52.0,50.0,30.15,SSW,197,4.0,9.0,92,0.00,,,0.00,,2013-05-24 21:32:00,
2013-05-24 14:42:00,52.0,50.0,30.15,SSW,197,4.0,9.0,92,0.00,,,0.00,,2013-05-24 21:42:00,
2013-05-24 14:53:00,51.0,49.0,30.16,South,185,6.0,13.0,92,0.00,,,0.00,,2013-05-24 21:53:00,
2013-05-24 15:02:00,52.0,50.0,30.16,SSE,148,5.0,9.0,93,0.00,,,0.00,,2013-05-24 22:02:00,
2013-05-24 15:12:00,52.0,50.0,30.16,SSE,148,5.0,9.0,93,0.00,,,0.00,,2013-05-24 22:12:00,
2013-05-24 15:22:00,53.0,51.0,30.15,SSW,204,1.0,8.0,92,0.00,,,0.00,,2013-05-24 22:22:00,
2013-05-24 15:32:00,53.0,50.0,30.15,West,259,3.0,8.0,91,0.00,,,0.00,,2013-05-24 22:32:00,
2013-05-24 15:42:00,53.0,50.0,30.15,West,259,3.0,8.0,91,0.00,,,0.00,,2013-05-24 22:42:00,
2013-05-24 15:52:00,55.0,52.0,30.15,West,262,3.0,9.0,91,0.00,,,0.00,,2013-05-24 22:52:00,
2013-05-24 16:02:00,56.0,53.0,30.15,West,265,2.0,9.0,90,0.00,,,0.00,,2013-05-24 23:02:00,
2013-05-24 16:11:00,56.0,53.0,30.15,West,265,2.0,9.0,90,0.00,,,0.00,,2013-05-24 23:11:00,
2013-05-24 16:22:00,53.0,50.0,30.15,SSW,208,3.0,11.0,89,0.00,,,0.00,,2013-05-24 23:22:00,
2013-05-24 16:32:00,52.0,49.0,30.16,SSE,168,4.0,9.0,90,0.00,,,0.00,,2013-05-24 23:32:00,
2013-05-24 16:42:00,52.0,49.0,30.16,SSE,168,4.0,9.0,90,0.00,,,0.00,,2013-05-24 23:42:00,
2013-05-24 16:52:00,52.0,49.0,30.16,SW,218,0.0,6.0,91,0.00,,,0.00,,2013-05-24 23:52:00,
2013-05-24 17:01:00,51.0,49.0,30.15,WNW,296,1.0,7.0,92,0.00,,,0.00,,2013-05-25 00:01:00,
2013-05-24 17:11:00,51.0,49.0,30.15,WNW,296,1.0,7.0,92,0.00,,,0.00,,2013-05-25 00:11:00,
2013-05-24 17:21:00,52.0,50.0,30.15,SW,217,3.0,10.0,93,0.00,,,0.00,,2013-05-25 00:21:00,
2013-05-24 17:32:00,52.0,50.0,30.15,South,171,2.0,10.0,93,0.00,,,0.00,,2013-05-25 00:32:00,
2013-05-24 17:41:00,52.0,50.0,30.15,South,171,2.0,10.0,93,0.00,,,0.00,,2013-05-25 00:41:00,
2013-05-24 17:52:00,53.0,51.0,30.15,WSW,247,7.0,11.0,93,0.00,,,0.00,,2013-05-25 00:52:00,
2013-05-24 18:01:00,52.0,50.0,30.15,West,281,6.0,11.0,93,0.00,,,0.00,,2013-05-25 01:01:00,
2013-05-24 18:11:00,52.0,50.0,30.15,West,281,6.0,11.0,93,0.00,,,0.00,,2013-05-25 01:11:00,
2013-05-24 18:22:00,52.0,50.0,30.15,West,269,5.0,9.0,94,0.00,,,0.00,,2013-05-25 01:22:00,
2013-05-24 18:32:00,52.0,50.0,30.15,West,267,4.0,6.0,93,0.00,,,0.00,,2013-05-25 01:32:00,
2013-05-24 18:41:00,52.0,50.0,30.15,West,267,4.0,6.0,93,0.00,,,0.00,,2013-05-25 01:41:00,
2013-05-24 18:52:00,52.0,50.0,30.15,West,273,3.0,6.0,94,0.00,,,0.00,,2013-05-25 01:52:00,
2013-05-24 19:01:00,52.0,50.0,30.15,West,273,3.0,6.0,94,0.00,,,0.00,,2013-05-25 02:01:00,
2013-05-24 19:11:00,52.0,50.0,30.15,West,273,3.0,6.0,94,0.00,,,0.00,,2013-05-25 02:11:00,
2013-05-24 19:21:00,51.0,49.0,30.15,SSE,167,0.0,4.0,93,0.00,,,0.00,,2013-05-25 02:21:00,
2013-05-24 19:31:00,51.0,49.0,30.14,SSW,197,0.0,3.0,93,0.00,,,0.00,,2013-05-25 02:31:00,
2013-05-24 19:42:00,51.0,49.0,30.14,SSW,197,0.0,3.0,93,0.00,,,0.00,,2013-05-25 02:42:00,
2013-05-24 19:52:00,51.0,49.0,30.14,SSW,197,0.0,1.0,93,0.00,,,0.00,,2013-05-25 02:52:00,
2013-05-24 20:01:00,51.0,49.0,30.14,SE,142,0.0,3.0,92,0.00,,,0.00,,2013-05-25 03:01:00,
2013-05-24 20:11:00,51.0,49.0,30.14,SE,142,0.0,3.0,92,0.00,,,0.00,,2013-05-25 03:11:00,
2013-05-24 20:21:00,51.0,48.0,30.14,SE,142,0.0,0.0,91,0.00,,,0.00,,2013-05-25 03:21:00,
2013-05-24 20:32:00,51.0,49.0,30.14,SE,142,0.0,0.0,92,0.00,,,0.00,,2013-05-25 03:32:00,
2013-05-24 20:43:00,51.0,49.0,30.14,SE,142,0.0,0.0,92,0.00,,,0.00,,2013-05-25 03:43:00,
2013-05-24 20:53:00,51.0,49.0,30.14,SE,138,0.0,0.0,93,0.00,,,0.00,,2013-05-25 03:53:00,
2013-05-24 21:02:00,51.0,49.0,30.14,SE,136,0.0,0.0,93,0.00,,,0.00,,2013-05-25 04:02:00,
2013-05-24 21:12:00,51.0,49.0,30.14,SE,136,0.0,0.0,93,0.00,,,0.00,,2013-05-25 04:12:00,
2013-05-24 21:23:00,50.0,48.0,30.14,East,89,0.0,0.0,94,0.00,,,0.00,,2013-05-25 04:23:00,
2013-05-24 21:32:00,50.0,48.0,30.14,East,91,0.0,0.0,94,0.00,,,0.00,,2013-05-25 04:32:00,
2013-05-24 21:43:00,50.0,48.0,30.14,East,91,0.0,0.0,94,0.00,,,0.00,,2013-05-25 04:43:00,
2013-05-24 21:52:00,50.0,48.0,30.14,East,94,0.0,3.0,94,0.00,,,0.00,,2013-05-25 04:52:00,
2013-05-24 22:02:00,50.0,48.0,30.14,East,95,2.0,5.0,94,0.00,,,0.00,,2013-05-25 05:02:00,
2013-05-24 22:12:00,50.0,48.0,30.14,East,95,2.0,5.0,94,0.00,,,0.00,,2013-05-25 05:12:00,
2013-05-24 22:22:00,50.0,48.0,30.14,NNE,30,2.0,5.0,94,0.00,,,0.00,,2013-05-25 05:22:00,
2013-05-24 22:32:00,50.0,48.0,30.14,ENE,78,1.0,5.0,94,0.00,,,0.00,,2013-05-25 05:32:00,
2013-05-24 22:42:00,50.0,48.0,30.14,ENE,78,1.0,5.0,94,0.00,,,0.00,,2013-05-25 05:42:00,
2013-05-24 22:52:00,50.0,48.0,30.15,East,91,0.0,5.0,94,0.00,,,0.00,,2013-05-25 05:52:00,
2013-05-24 23:01:00,50.0,48.0,30.14,East,91,0.0,1.0,94,0.00,,,0.00,,2013-05-25 06:01:00,
2013-05-24 23:12:00,50.0,48.0,30.14,East,91,0.0,1.0,94,0.00,,,0.00,,2013-05-25 06:12:00,
2013-05-24 23:21:00,50.0,48.0,30.14,East,91,0.0,2.0,94,0.00,,,0.00,,2013-05-25 06:21:00,
2013-05-24 23:32:00,50.0,49.0,30.14,East,98,0.0,2.0,95,0.00,,,0.00,,2013-05-25 06:32:00,
2013-05-24 23:42:00,50.0,49.0,30.14,East,98,0.0,2.0,95,0.00,,,0.00,,2013-05-25 06:42:00,
2013-05-24 23:52:00,50.0,49.0,30.14,East,98,3.0,5.0,95,0.00,,,0.00,,2013-05-25 06:52:00,